Location: Bouillancy
(49.1149°N, 2.9308°E)
Time: 23:05:50
(UTC+00:00)

USA 229 - Pass Details

Date: 30 September 2020
Orbit: 973 x 1239 km, 63.4° (Epoch: 14 October)

Event Time Altitude Azimuth Distance (km) Brightness Sun altitude
Rises 20:52:50 0° 316° (NW) 3,909 7.8 -32.3°
Reaches altitude 10° 20:55:31 10° 321° (NW) 2,988 6.9 -32.6°
Enters shadow 21:02:16 54° 30° (NNE) 1,391 4.2 -33.4°
